Location: Sternwarte ZA, Rosenfeld-Brittheim
(48.2889°N, 8.6789°E)
Time: 08:43:33
(UTC+02:00)

ISS - Pass Details

Date: 24 October 2020
Orbit: 418 x 419 km, 51.6° (Epoch: 19 October)

Event Time Altitude Azimuth Distance (km) Brightness Sun altitude
Exits shadow 06:04:39 - 180° (S) 1,652 -0.8 -19.6°
Reaches altitude 10° 06:05:16 10° 173° (S) 1,490 -0.9 -19.5°
Maximum altitude 06:07:15 15° 136° (SE) 1,229 -0.9 -19.2°
Drops below altitude 10° 06:09:14 10° 100° (E) 1,496 0.2 -18.9°
Sets 06:11:59 0° 76° (ENE) 2,364 1.6 -18.4°
